{"data":{"norad_id":60476,"epoch":"2026-05-25T04:55:48.885024Z","epoch_age_seconds":50611,"freshness":"FRESH","line1":"1 60476U 24149J   26145.20542691  .00023286  00000+0  47856-3 0  9993","line2":"2 60476  97.3772 231.2161 0000632 350.7443   9.3795 15.45992371 98919","mean_motion":15.45992371,"eccentricity":6.32e-5,"inclination_deg":97.3772,"raan_deg":231.2161,"arg_perigee_deg":350.7443,"mean_anomaly_deg":9.3795,"bstar":0.00047856,"rev_number":9891,"period_min":93.144056012939,"perigee_km":428.03356906611,"apogee_km":428.89392340044,"semimajor_km":6806.6007462333,"source":"CELESTRAK","updated_at":"2026-05-25T13:38:02.089477Z"}}